Weather Service Report


214 
ASUS41 KRLX 211710
RWRRLX
West Virginia Regional Weather Roundup
National Weather Service Charleston WV
100 PM EDT TUE OCT 21 2014

Note: "fair" indicates few or no clouds below 12,000 feet with no
significant weather and/or obstructions to visibility.

WVZ003-211800-
Northern Panhandle of West Virginia
  
CITY           SKY/WX    TMP DP  RH WIND       PRES   REMARKS
WHEELING       CLOUDY    51  48  89 NW6       29.90S                  
$$

WVZ009-211800-
Northwest West Virginia
  
CITY           SKY/WX    TMP DP  RH WIND       PRES   REMARKS
PARKERSBURG    LGT RAIN  52  49  89 NW12G17   29.96R                  
$$

WVZ006-211800-
Western West Virginia
  
CITY           SKY/WX    TMP DP  RH WIND       PRES   REMARKS
HUNTINGTON     CLOUDY    55  44  66 NW10      29.98S                  
$$

WVZ015-211800-
West Central West Virginia
  
CITY           SKY/WX    TMP DP  RH WIND       PRES   REMARKS
CHARLESTON     LGT RAIN  54  48  80 VRB6      29.94F                  
$$

WVZ022-031-211800-
North Central West Virginia
  
CITY           SKY/WX    TMP DP  RH WIND       PRES   REMARKS
CLARKSBURG     LGT RAIN  51  50  96 W7        29.90S FOG              
MORGANTOWN     RAIN      53  48  83 NW5       29.89F                  
$$

WVZ025-035-042-045-211800-
Southern West Virginia
  
CITY           SKY/WX    TMP DP  RH WIND       PRES   REMARKS
BECKLEY        CLOUDY    52  46  80 W14       29.94S                  
LOGAN          CLOUDY    54  46  76 VRB7      29.96S                  
BLUEFIELD      CLOUDY    51  43  74 NW14G23   29.96S                  
LEWISBURG      LGT RAIN  54  48  80 W9        29.92S                  
$$

WVZ047-211800-
Northern Mountains of West Virginia
  
CITY           SKY/WX    TMP DP  RH WIND       PRES   REMARKS
ELKINS         LGT RAIN  51  51 100 CALM      29.89F FOG              
$$

WVZ052-211800-
Eastern Panhandle of West Virginia
  
CITY           SKY/WX    TMP DP  RH WIND       PRES   REMARKS
MARTINSBURG    MOSUNNY   65  45  48 VRB3      29.86F                  
PETERSBURG     LGT RAIN N/A N/A N/A CALM      29.88F                  
$$

Return to Home page


Western Regional Climate Center, wrcc@dri.edu